Погода в Жарыке

Погода в Жарыке : погода сейчас, прогноз погоды и архив. Всё, что Вы хотите узнать о погоде в Жарыке!

Поиск расширенной информации на нашем сайте:

Другие новости

Новости СМИ2

Главная страница сайта

Новости сайта

03.07.2017

Напоминаем, что на нашем специализированном сайте Метеоцентр.Азия вы можете получить высокодетализированные автоматические прогнозы погоды по пунктам России, СНГ и мира в авиационном формате (включающие направление и скорость ветра, видимость, явления погоды, количество и форму облачности, нижнюю и верхнюю границу облачности).

Рекомендуем: Комерческая недвижимость в крыму продажа коммерческой недвижимости в крыму.

Погода в Жарыке - сегодня

Время (UTC), дата Ветер
(°,м/с) 
Видим.   Явления Облачность Т
(°С)
Тd
(°С)
f(%) Тe
(°С)
Pmin
(гПа)
dP
(гПа)
Po
(мм)
O2
(г/м3)
Тmin Tmax R s Состояние
почвы
06 15.08.17 020 (С) 20000 м    3/0 верхняя 
[Ci fib]
+19.1 +5.1 40 +20  1014.6  -0.4  706  265  +11.1         
09 15.08.17 050 (СВ) 20000 м    3/3 1000 м 
[Cu hum]
+20.5 +5.3 37 +21  1013.7  -0.5  705  263           
12 15.08.17 070 (В) 20000 м    3/3 1000 м 
[Cu hum]
+20.6 +4.9 36 +21  1014.3  0.5  706  263           
15 15.08.17 070 (В) н/о    ясно 
+16.1 +6.4 53 +16  1016.5  706  268    +22       
18 15.08.17 070 (В) н/о    ясно 
+14.3 +6.5 59 +14  1017  706  269    +22       
21 15.08.17 070 (В) н/о    ясно 
+12 +6.7 70 +12  1016.8  -0.7  706  271           
00 16.08.17 070 (В) 20000 м    ясно 
+10.3 +6.8 79 +10  1017.7  0.4  706  273           
03 16.08.17 070 (В) 20000 м    ясно 
+14.7 +6.5 58 +15  1017.7  1.1  707  269           
06 16.08.17 070 (В) 20000 м    1/0 средняя 
[Ac lent]
+17.4 +7.6 53 +18  1016.4  -0.5  707  266  +10.1         
09 16.08.17 090 (В) 20000 м    ясно 
+20.2 +7.8 45 +20  1014.8  -0.8  706  263           
12 16.08.17 090 (В) 20000 м    1/0 верхняя 
[Ci fib]
+20 +4 35 +20  1015.4  0.4  706  264           
15 16.08.17 090 (В) н/о    ясно 
+16.1 +5.3 49 +17  1018.1  1.6  707  268    +21       
18 16.08.17 090 (В) н/о    ясно 
+12.5 +5.2 61 +14  1019.4  0.3  708  272    +21       
21 16.08.17 090 (В) н/о    ясно 
+10.3 +5.4 72 +11  1019.5  -0.5  707  274           
00 17.08.17 070 (В) 20000 м    4/0 средняя 
[Ac lent]
+8.3 +5.5 83 +9  1021  0.9  708  276           
03 17.08.17 070 (В) 20000 м    6/4 1000 м средняя, верхняя 
[Sc|Ac lent|Ci fib]
+12.8 +7.2 69 +14  1020.4  0.6  750  288           
06 17.08.17 360 (С) 20000 м    9/4 600 м кучево-дожд., средняя 
[Cb cap|Ac trans]
+18.6 +6 44 +19  1018.9  708  266  +8.3         
09 17.08.17 360 (С) 20000 м    10/10 600 м кучево-дожд. 
[Cb cap]
+19.3 +4.6 38 +20  1018.5  -0.2  708  266           
12 17.08.17 360 (С) 20000 м    9/9 600 м кучево-дожд. 
[Cb cap]
+18.1 +5.5 43 +19  1018.8  708  267           
15 17.08.17 360 (С) н/о    8/0 средняя 
[Ac trans]
+15.9 +6.8 55 +17  1020  0.6  709  269    +21       
18 17.08.17 тихо ()   н/о    ясно 
+11.9 +9.4 85 +13  1020.7  -0.3  708  272    +21       
21 17.08.17 тихо ()   н/о    ясно 
+9.7 +8.3 91 +10  1020.9  -0.4  708  274           
00 18.08.17 тихо ()   20000 м    6/3 600 м кучево-дожд., средняя 
[Cb cap|Ac trans]
+8.6 +7.2 91 +9  1021.7  0.4  708  275           
03 18.08.17 тихо ()   20000 м    9/3 600 м кучево-дожд., средняя 
[Cb cap|Ac trans]
+14.1 +7.6 65 +14  1020.4  0.2  709  270           
06 18.08.17 320 (СЗ) 20000 м    8/4 600 м кучево-дожд., средняя 
[Cb cap|Ac trans]
+21.1 +7.8 42 +21  1018.4  -0.1  709  264  +8.6         
Время (UTC), дата Ветер
(°,м/с) 
Видим.   Явления Облачность Т
(°С)
Тd
(°С)
f(%) Тe
(°С)
Pmin
(гПа)
dP
(гПа)
Po
(мм)
O2
(г/м3)
Тmin Tmax R s Состояние
почвы

Для получения пояснительной информации подведите курсор к названию столбца.

ПОГОДА в Жарыке - архив

Всё, что Вы хотите узнать о погоде в Жарыке - удобно и подробно!

Выберите нужную дату (начиная с 1 января 2015* года) и нажмите кнопку "Найти".
Будут отображены архивные сводки погоды по пункту Жарык, начиная с указанной даты.


Отображать данные в формате CSV (для использования в таблицах Excel)


Внимание! Наш архив погоды предназначен исключительно для личного некоммерческого использования в познавательных целях. Если Вам необходимы официальные справки о состоянии погоды (для производственных, юридических, коммерческих и т.п. целей), обращайтесь в органы Росгидромета.

*Примечание: данная дата относится к архиву по метеостанциям СССР (Россия, СНГ, Балтия).
Архив по метеостанциям Зарубежной Европы и Азии (кроме Китая) хранится 10 дней, по другим регионам земного шара (Китай, Африка, Америка, Австралия, Океания) - 1 день.

Жарык - район местоположения метеостанции


Название, широта, долгота, высота метеостанции:
Жарык 48.9°ш. 72.9°д. 656 м над ур. моря [Казахстан]

Дополнительная информация

В oтличие oт бoльшинства пoгoдных сайтoв мы публикуем пoдрoбную метеoинфoрмацию в детальнoм прoфессиoнальнoм фoрмате.

Характеристики температуры и влажнoсти вoздуха измеряются на высoте 2 м в тени вдали oт зданий и деревьев.
Скoрoсть ветра измеряется на высoте 10 м (на урoвне рoста челoвека скoрoсть ветра ниже в 1.5-2 раза). Если метеoстанция нахoдится в гoрoде или в лесу, тo скoрoсть ветра занижена на 2-4 м/с пo сравнению с oткрытым местoм. Скoрoсть ветра над акватoриями крупных рек и oзёр, а также на вершинах хoлмoв на 2-5 м/с выше, чем в oбычных услoвиях.
Атмoсфернoе давление в разных тoчках местнoсти мoжет значительнo oтличаться oт давления на метеoстанции, в зависимoсти oт услoвий рельефа (при пoдъёме на 10 м давление пoнижается примернo на 1 мм рт.ст.).